• In Netherlands
  • List of Countries
  • For 7 days
  • Water Temperature
  • Satellite Maps
  • Weather Map
  • Weather Widgets
  • user-avatar
    Login

    Hourly Weather Yulara

    Today, 24 May, Wednesday

    Time Temperature Precipitation Wind Pressure Humidity
    00:00 +19°C° 0 mm 4 mps 721 mmHg 39%
    01:00 +18°C° 0 mm 4 mps 721 mmHg 40%
    02:00 +18°C° 0 mm 4 mps 721 mmHg 42%
    03:00 +17°C° 0 mm 4 mps 721 mmHg 44%
    04:00 +17°C° 0 mm 4 mps 721 mmHg 45%
    05:00 +15°C° 0 mm 4 mps 722 mmHg 47%
    06:00 +15°C° 0 mm 4 mps 722 mmHg 49%
    07:00 +16°C° 0 mm 5 mps 722 mmHg 47%
    08:00 +17°C° 0 mm 6 mps 722 mmHg 45%
    09:00 +18°C° 0 mm 7 mps 722 mmHg 48%
    10:00 +21°C° 0 mm 7 mps 722 mmHg 44%
    11:00 +22°C° 0 mm 6 mps 722 mmHg 39%
    12:00 +24°C° 0 mm 6 mps 722 mmHg 35%
    13:00 +26°C° 0 mm 6 mps 721 mmHg 33%
    14:00 +27°C° 0 mm 5 mps 721 mmHg 31%
    15:00 +28°C° 0 mm 4 mps 720 mmHg 28%
    16:00 +27°C° 0 mm 4 mps 720 mmHg 30%
    17:00 +26°C° 0 mm 4 mps 720 mmHg 32%
    18:00 +25°C° 0 mm 4 mps 720 mmHg 34%
    19:00 +23°C° 0 mm 4 mps 720 mmHg 35%
    20:00 +23°C° 0 mm 4 mps 721 mmHg 36%
    21:00 +22°C° 0 mm 5 mps 721 mmHg 36%
    22:00 +22°C° 0 mm 5 mps 721 mmHg 36%
    23:00 +22°C° 0 mm 5 mps 721 mmHg 36%

    Tomorrow, 25 May, Thursday

    Time Temperature Precipitation Wind Pressure Humidity
    00:00 +21°C° 0 mm 5 mps 721 mmHg 37%
    01:00 +21°C° 0 mm 5 mps 721 mmHg 37%
    02:00 +20°C° 0 mm 5 mps 721 mmHg 38%
    03:00 +20°C° 0 mm 5 mps 721 mmHg 39%
    04:00 +20°C° 0 mm 4 mps 721 mmHg 39%
    05:00 +19°C° 0 mm 4 mps 721 mmHg 39%
    06:00 +19°C° 0 mm 4 mps 721 mmHg 40%
    07:00 +19°C° 0 mm 3 mps 721 mmHg 38%
    08:00 +20°C° 0 mm 3 mps 722 mmHg 36%
    09:00 +21°C° 0 mm 3 mps 722 mmHg 34%
    10:00 +23°C° 0 mm 2 mps 722 mmHg 31%
    11:00 +24°C° 0 mm 2 mps 722 mmHg 29%
    12:00 +26°C° 0 mm 1 mps 722 mmHg 27%
    13:00 +26°C° 0 mm 1 mps 721 mmHg 26%
    14:00 +27°C° 0 mm 2 mps 721 mmHg 26%
    15:00 +27°C° 0 mm 2 mps 720 mmHg 26%
    16:00 +27°C° 0 mm 2 mps 720 mmHg 28%
    17:00 +26°C° 0 mm 3 mps 720 mmHg 30%
    18:00 +25°C° 0 mm 4 mps 720 mmHg 33%
    19:00 +23°C° 0.1 mm 4 mps 721 mmHg 35%
    20:00 +22°C° 0.1 mm 4 mps 721 mmHg 38%
    21:00 +21°C° 0.1 mm 4 mps 721 mmHg 40%
    22:00 +20°C° 0 mm 4 mps 721 mmHg 41%
    23:00 +20°C° 0 mm 3 mps 721 mmHg 42%

    Day after tomorrow, 26 May, Friday

    Time Temperature Precipitation Wind Pressure Humidity
    00:00 +19°C° 0 mm 3 mps 721 mmHg 43%
    01:00 +19°C° 0 mm 3 mps 721 mmHg 43%
    02:00 +18°C° 0 mm 3 mps 720 mmHg 43%
    03:00 +18°C° 0 mm 3 mps 720 mmHg 43%
    04:00 +17°C° 0 mm 3 mps 720 mmHg 43%
    05:00 +17°C° 0 mm 3 mps 720 mmHg 44%
    06:00 +17°C° 0 mm 3 mps 720 mmHg 45%
    07:00 +18°C° 0 mm 3 mps 721 mmHg 42%
    08:00 +19°C° 0 mm 2 mps 721 mmHg 38%
    09:00 +20°C° 0 mm 2 mps 721 mmHg 35%
    10:00 +22°C° 0 mm 3 mps 721 mmHg 32%
    11:00 +25°C° 0 mm 4 mps 721 mmHg 29%
    12:00 +27°C° 0 mm 5 mps 721 mmHg 26%
    13:00 +27°C° 0 mm 5 mps 720 mmHg 25%
    14:00 +28°C° 0 mm 5 mps 719 mmHg 25%
    15:00 +29°C° 0 mm 5 mps 719 mmHg 24%
    16:00 +27°C° 0 mm 5 mps 719 mmHg 27%
    17:00 +26°C° 0 mm 4 mps 719 mmHg 30%
    18:00 +25°C° 0 mm 3 mps 719 mmHg 32%
    19:00 +24°C° 0 mm 3 mps 719 mmHg 34%
    20:00 +22°C° 0 mm 3 mps 720 mmHg 36%
    21:00 +22°C° 0 mm 3 mps 720 mmHg 38%
    22:00 +21°C° 0 mm 3 mps 720 mmHg 39%
    23:00 +21°C° 0 mm 3 mps 720 mmHg 40%

    27 May, Saturday

    Time Temperature Precipitation Wind Pressure Humidity
    00:00 +21°C° 0 mm 4 mps 720 mmHg 41%
    01:00 +20°C° 0 mm 4 mps 720 mmHg 41%
    02:00 +20°C° 0 mm 4 mps 720 mmHg 41%
    03:00 +19°C° 0 mm 4 mps 720 mmHg 41%
    04:00 +18°C° 0 mm 4 mps 720 mmHg 40%
    05:00 +18°C° 0 mm 3 mps 720 mmHg 38%
    06:00 +17°C° 0 mm 3 mps 720 mmHg 37%
    07:00 +18°C° 0.1 mm 3 mps 721 mmHg 34%
    08:00 +19°C° 0.1 mm 2 mps 721 mmHg 32%
    09:00 +20°C° 0.1 mm 2 mps 722 mmHg 29%
    10:00 +21°C° 0 mm 2 mps 722 mmHg 26%
    11:00 +23°C° 0 mm 2 mps 722 mmHg 24%
    12:00 +25°C° 0 mm 1 mps 722 mmHg 21%
    13:00 +25°C° 0 mm 2 mps 721 mmHg 20%
    14:00 +26°C° 0 mm 2 mps 721 mmHg 20%
    15:00 +27°C° 0 mm 2 mps 720 mmHg 20%
    16:00 +25°C° 0 mm 2 mps 720 mmHg 21%
    17:00 +24°C° 0 mm 2 mps 720 mmHg 23%
    18:00 +23°C° 0 mm 2 mps 720 mmHg 24%
    19:00 +21°C° 0 mm 2 mps 721 mmHg 25%
    20:00 +21°C° 0 mm 3 mps 721 mmHg 25%
    21:00 +20°C° 0 mm 3 mps 722 mmHg 26%
    22:00 +19°C° 0 mm 3 mps 722 mmHg 27%
    23:00 +19°C° 0 mm 3 mps 722 mmHg 28%

    28 May, Sunday

    Time Temperature Precipitation Wind Pressure Humidity
    00:00 +18°C° 0 mm 3 mps 722 mmHg 30%
    01:00 +17°C° 0 mm 2 mps 721 mmHg 31%
    02:00 +17°C° 0 mm 2 mps 721 mmHg 31%
    03:00 +16°C° 0 mm 2 mps 721 mmHg 32%
    04:00 +16°C° 0 mm 2 mps 721 mmHg 33%
    05:00 +16°C° 0 mm 2 mps 721 mmHg 33%
    06:00 +15°C° 0 mm 2 mps 722 mmHg 33%
    07:00 +16°C° 0 mm 3 mps 722 mmHg 31%
    08:00 +17°C° 0 mm 3 mps 723 mmHg 29%
    09:00 +19°C° 0 mm 3 mps 724 mmHg 26%
    10:00 +20°C° 0 mm 4 mps 723 mmHg 24%
    11:00 +21°C° 0 mm 4 mps 723 mmHg 22%
    12:00 +23°C° 0 mm 4 mps 723 mmHg 20%
    13:00 +24°C° 0 mm 3 mps 722 mmHg 20%
    14:00 +25°C° 0 mm 3 mps 722 mmHg 20%
    15:00 +25°C° 0 mm 3 mps 721 mmHg 19%
    16:00 +24°C° 0 mm 3 mps 722 mmHg 21%
    17:00 +22°C° 0 mm 3 mps 722 mmHg 24%
    18:00 +21°C° 0 mm 3 mps 722 mmHg 26%
    19:00 +20°C° 0 mm 4 mps 723 mmHg 28%
    20:00 +19°C° 0 mm 4 mps 723 mmHg 31%
    21:00 +18°C° 0 mm 4 mps 724 mmHg 34%
    22:00 +18°C° 0 mm 4 mps 724 mmHg 38%
    23:00 +17°C° 0 mm 4 mps 724 mmHg 42%

    29 May, Monday

    Time Temperature Precipitation Wind Pressure Humidity
    00:00 +15°C° 0 mm 4 mps 724 mmHg 46%
    01:00 +15°C° 0 mm 4 mps 723 mmHg 50%
    02:00 +14°C° 0 mm 4 mps 723 mmHg 53%
    03:00 +14°C° 0 mm 4 mps 723 mmHg 57%
    04:00 +13°C° 0 mm 4 mps 723 mmHg 59%
    05:00 +13°C° 0 mm 4 mps 723 mmHg 62%
    06:00 +12°C° 0 mm 4 mps 724 mmHg 64%
    07:00 +13°C° 0 mm 5 mps 724 mmHg 61%
    08:00 +13°C° 0 mm 5 mps 724 mmHg 57%
    09:00 +14°C° 0 mm 6 mps 725 mmHg 53%
    10:00 +15°C° 0 mm 5 mps 724 mmHg 49%
    11:00 +17°C° 0 mm 5 mps 724 mmHg 44%
    12:00 +19°C° 0 mm 4 mps 724 mmHg 40%
    13:00 +20°C° 0 mm 3 mps 723 mmHg 38%
    14:00 +20°C° 0 mm 3 mps 723 mmHg 36%
    15:00 +21°C° 0 mm 2 mps 722 mmHg 35%
    16:00 +20°C° 0 mm 2 mps 722 mmHg 37%
    17:00 +19°C° 0 mm 2 mps 723 mmHg 39%
    18:00 +18°C° 0 mm 2 mps 723 mmHg 41%
    19:00 +18°C° 0 mm 3 mps 723 mmHg 43%
    20:00 +17°C° 0 mm 3 mps 724 mmHg 44%
    21:00 +17°C° 0 mm 3 mps 724 mmHg 46%
    22:00 +16°C° 0 mm 3 mps 724 mmHg 48%
    23:00 +14°C° 0 mm 3 mps 724 mmHg 50%
    Show more